�N����,�����b,���ԉ��x,���Ԏ��x,��󒲎�,����,�����W,���։��x,���֎��x
2004/12/1,0:00:00,22.0 ,50.1 ,14.1 ,12.3 ,21.9 ,21.1 ,43.8 
2004/12/1,0:15:00,21.5 ,50.5 ,14.1 ,12.3 ,21.4 ,20.8 ,44.1 
2004/12/1,0:30:00,21.3 ,50.8 ,14.1 ,12.3 ,21.1 ,20.7 ,44.4 
2004/12/1,0:45:00,21.1 ,50.9 ,14.1 ,12.3 ,20.8 ,20.5 ,44.7 
2004/12/1,1:00:00,20.9 ,51.1 ,14.1 ,12.3 ,20.7 ,20.4 ,44.9 
2004/12/1,1:15:00,20.6 ,50.7 ,14.0 ,12.3 ,20.5 ,20.2 ,44.6 
2004/12/1,1:30:00,20.5 ,51.1 ,14.0 ,12.4 ,20.3 ,20.1 ,45.0 
2004/12/1,1:45:00,20.3 ,50.9 ,14.0 ,12.4 ,20.2 ,19.9 ,45.2 
2004/12/1,2:00:00,20.2 ,51.0 ,14.0 ,12.4 ,20.1 ,19.8 ,45.3 
2004/12/1,2:15:00,20.0 ,50.5 ,13.9 ,12.4 ,20.0 ,19.7 ,45.4 
2004/12/1,2:30:00,19.9 ,50.6 ,13.9 ,12.4 ,19.9 ,19.6 ,45.4 
2004/12/1,2:45:00,19.8 ,51.0 ,13.9 ,12.4 ,19.8 ,19.5 ,45.4 
2004/12/1,3:00:00,19.6 ,50.9 ,13.9 ,12.4 ,19.7 ,19.4 ,45.4 
2004/12/1,3:15:00,19.5 ,51.3 ,13.9 ,12.4 ,19.6 ,19.3 ,45.5 
2004/12/1,3:30:00,19.4 ,51.7 ,13.8 ,12.4 ,19.4 ,19.2 ,45.5 
2004/12/1,3:45:00,19.3 ,51.8 ,13.8 ,12.4 ,19.2 ,19.1 ,45.6 
2004/12/1,4:00:00,19.1 ,51.9 ,13.8 ,12.5 ,19.0 ,18.9 ,45.7 
2004/12/1,4:15:00,19.0 ,52.0 ,13.7 ,12.5 ,18.8 ,18.9 ,45.8 
2004/12/1,4:30:00,18.9 ,52.0 ,13.7 ,12.5 ,18.5 ,18.8 ,45.8 
2004/12/1,4:45:00,18.8 ,52.3 ,13.7 ,12.5 ,18.4 ,18.7 ,45.8 
2004/12/1,5:00:00,18.7 ,52.1 ,13.6 ,12.5 ,18.4 ,18.6 ,45.9 
2004/12/1,5:15:00,18.5 ,51.6 ,13.6 ,12.5 ,18.3 ,18.5 ,45.9 
2004/12/1,5:30:00,18.5 ,52.1 ,13.6 ,12.5 ,18.2 ,18.4 ,45.9 
2004/12/1,5:45:00,18.3 ,52.2 ,13.5 ,12.5 ,18.0 ,18.3 ,45.9 
2004/12/1,6:00:00,18.3 ,52.3 ,13.5 ,12.5 ,17.9 ,18.3 ,45.9 
2004/12/1,6:15:00,18.2 ,52.5 ,13.5 ,12.5 ,17.8 ,18.1 ,46.1 
2004/12/1,6:30:00,18.1 ,53.9 ,13.5 ,12.5 ,17.7 ,18.1 ,46.3 
2004/12/1,6:45:00,18.2 ,53.9 ,13.4 ,12.5 ,17.6 ,18.0 ,46.4 
2004/12/1,7:00:00,19.0 ,52.5 ,13.4 ,12.5 ,20.2 ,18.1 ,46.9 
2004/12/1,7:15:00,19.6 ,52.7 ,13.4 ,12.5 ,20.5 ,18.3 ,47.7 
2004/12/1,7:30:00,20.0 ,53.4 ,13.4 ,12.5 ,21.7 ,18.6 ,48.4 
2004/12/1,7:45:00,20.4 ,53.3 ,13.4 ,12.6 ,21.6 ,18.8 ,49.1 
2004/12/1,8:00:00,20.5 ,51.0 ,13.4 ,12.6 ,21.8 ,19.0 ,48.5 
2004/12/1,8:15:00,20.8 ,50.4 ,13.3 ,12.6 ,21.8 ,19.2 ,48.1 
2004/12/1,8:30:00,21.0 ,50.8 ,13.4 ,12.6 ,21.8 ,19.3 ,48.1 
2004/12/1,8:45:00,21.2 ,49.9 ,13.4 ,12.2 ,21.8 ,19.5 ,47.9 
2004/12/1,9:00:00,21.4 ,49.4 ,13.4 ,12.3 ,21.8 ,19.7 ,47.6 
2004/12/1,9:15:00,21.5 ,48.1 ,13.5 ,12.3 ,21.9 ,19.8 ,47.2 
2004/12/1,9:30:00,21.7 ,49.2 ,13.5 ,12.3 ,22.0 ,19.9 ,47.1 
2004/12/1,9:45:00,21.9 ,49.2 ,13.5 ,12.3 ,22.2 ,20.0 ,47.3 
2004/12/1,10:00:00,21.8 ,48.5 ,13.8 ,12.3 ,22.3 ,20.2 ,47.3 
2004/12/1,10:15:00,21.4 ,49.0 ,13.7 ,12.3 ,21.9 ,20.2 ,46.6 
2004/12/1,10:30:00,21.1 ,49.3 ,13.7 ,12.3 ,21.5 ,20.1 ,46.3 
2004/12/1,10:45:00,20.8 ,49.6 ,13.6 ,12.3 ,21.1 ,20.1 ,46.2 
2004/12/1,11:00:00,20.6 ,49.9 ,13.5 ,12.3 ,20.8 ,19.9 ,46.1 
2004/12/1,11:15:00,20.3 ,50.0 ,13.5 ,12.3 ,20.5 ,19.9 ,46.1 
2004/12/1,11:30:00,20.1 ,50.0 ,13.4 ,12.3 ,20.2 ,19.8 ,46.0 
2004/12/1,11:45:00,19.9 ,50.1 ,13.4 ,12.4 ,20.0 ,19.7 ,45.9 
2004/12/1,12:00:00,19.8 ,50.2 ,13.4 ,12.4 ,19.8 ,19.6 ,45.8 
2004/12/1,12:15:00,19.7 ,49.9 ,13.4 ,12.4 ,19.6 ,19.5 ,45.7 
2004/12/1,12:30:00,19.7 ,50.0 ,13.4 ,12.4 ,19.6 ,19.4 ,45.8 
2004/12/1,12:45:00,19.7 ,50.0 ,13.5 ,12.4 ,19.6 ,19.4 ,45.8 
2004/12/1,13:00:00,19.7 ,50.0 ,13.5 ,12.4 ,19.6 ,19.4 ,45.8 
2004/12/1,13:15:00,19.6 ,50.1 ,13.5 ,12.4 ,19.6 ,19.3 ,45.8 
2004/12/1,13:30:00,19.5 ,50.1 ,13.5 ,12.4 ,19.5 ,19.3 ,45.8 
2004/12/1,13:45:00,19.4 ,50.2 ,13.5 ,12.4 ,19.4 ,19.3 ,45.6 
2004/12/1,14:00:00,19.3 ,50.4 ,13.5 ,12.4 ,19.3 ,19.2 ,45.4 
2004/12/1,14:15:00,19.2 ,50.5 ,13.5 ,12.4 ,19.2 ,19.1 ,45.2 
2004/12/1,14:30:00,19.1 ,50.5 ,13.5 ,12.5 ,19.1 ,19.1 ,45.1 
2004/12/1,14:45:00,19.0 ,50.5 ,13.5 ,12.5 ,19.0 ,19.0 ,45.0 
2004/12/1,15:00:00,18.9 ,50.6 ,13.5 ,12.5 ,18.9 ,18.9 ,44.9 
2004/12/1,15:15:00,18.6 ,49.0 ,13.7 ,12.0 ,18.7 ,18.9 ,44.9 
2004/12/1,15:30:00,18.8 ,50.1 ,13.7 ,12.1 ,18.6 ,18.8 ,44.9 
2004/12/1,15:45:00,18.9 ,50.2 ,13.7 ,12.2 ,18.7 ,18.8 ,44.8 
2004/12/1,16:00:00,18.8 ,50.4 ,13.7 ,12.3 ,18.5 ,18.8 ,44.8 
2004/12/1,16:15:00,18.6 ,50.6 ,13.7 ,12.3 ,18.4 ,18.7 ,44.7 
2004/12/1,16:30:00,18.6 ,50.7 ,13.7 ,12.3 ,18.3 ,18.6 ,44.7 
2004/12/1,16:45:00,18.5 ,50.8 ,13.7 ,12.3 ,18.2 ,18.5 ,44.7 
2004/12/1,17:00:00,18.4 ,51.0 ,13.6 ,12.3 ,18.0 ,18.4 ,44.7 
2004/12/1,17:15:00,18.3 ,50.8 ,13.6 ,12.4 ,17.9 ,18.4 ,44.7 
2004/12/1,17:30:00,18.2 ,51.1 ,13.6 ,12.4 ,17.8 ,18.3 ,44.7 
2004/12/1,17:45:00,18.1 ,50.9 ,13.6 ,12.4 ,17.8 ,18.3 ,44.7 
2004/12/1,18:00:00,18.1 ,51.1 ,13.6 ,12.4 ,17.7 ,18.2 ,44.7 
2004/12/1,18:15:00,18.0 ,51.0 ,13.6 ,12.5 ,17.5 ,18.1 ,44.7 
2004/12/1,18:30:00,18.1 ,51.7 ,13.7 ,12.5 ,18.1 ,18.1 ,44.7 
2004/12/1,18:45:00,19.1 ,50.2 ,13.7 ,12.5 ,19.4 ,18.1 ,45.4 
2004/12/1,19:00:00,19.6 ,48.9 ,13.7 ,12.2 ,23.5 ,18.4 ,45.6 
2004/12/1,19:15:00,20.0 ,49.8 ,13.8 ,12.2 ,22.6 ,18.6 ,46.3 
2004/12/1,19:30:00,20.5 ,49.2 ,13.8 ,12.3 ,21.7 ,18.9 ,46.5 
2004/12/1,19:45:00,20.8 ,48.5 ,13.8 ,12.3 ,21.3 ,19.1 ,46.4 
2004/12/1,20:00:00,21.0 ,48.1 ,13.9 ,12.3 ,21.3 ,19.3 ,46.3 
2004/12/1,20:15:00,21.2 ,47.5 ,13.9 ,12.4 ,21.3 ,19.5 ,46.1 
2004/12/1,20:30:00,21.4 ,47.1 ,13.9 ,12.4 ,21.2 ,19.7 ,45.9 
2004/12/1,20:45:00,21.6 ,46.8 ,14.0 ,12.4 ,21.2 ,19.8 ,45.7 
2004/12/1,21:00:00,21.9 ,47.5 ,14.0 ,12.4 ,21.4 ,19.9 ,45.8 
2004/12/1,21:15:00,22.1 ,48.2 ,14.1 ,12.5 ,22.9 ,20.1 ,46.1 
2004/12/1,21:30:00,21.9 ,49.5 ,14.1 ,12.5 ,22.1 ,20.3 ,46.4 
2004/12/1,21:45:00,21.9 ,49.7 ,14.2 ,12.5 ,21.5 ,20.2 ,46.4 
2004/12/1,22:00:00,22.2 ,49.1 ,14.3 ,12.5 ,21.9 ,20.3 ,46.7 
2004/12/1,22:15:00,22.4 ,49.1 ,14.3 ,12.6 ,22.2 ,20.4 ,46.9 
2004/12/1,22:30:00,21.9 ,50.5 ,14.3 ,11.9 ,21.6 ,20.4 ,46.9 
2004/12/1,22:45:00,22.2 ,48.8 ,14.3 ,11.9 ,21.8 ,20.5 ,46.8 
2004/12/1,23:00:00,22.0 ,48.9 ,14.4 ,12.0 ,21.5 ,20.5 ,46.6 
2004/12/1,23:15:00,22.2 ,48.5 ,14.4 ,12.1 ,21.4 ,20.6 ,46.6 
2004/12/1,23:30:00,21.9 ,53.7 ,14.4 ,12.2 ,20.8 ,20.6 ,47.4 
2004/12/1,23:45:00,22.0 ,53.3 ,14.4 ,12.2 ,20.6 ,20.5 ,48.1 
2004/12/2,0:00:00,21.5 ,53.2 ,14.5 ,12.2 ,20.4 ,20.4 ,48.1 
2004/12/2,0:15:00,21.2 ,53.5 ,14.5 ,12.3 ,20.0 ,20.4 ,48.1 
2004/12/2,0:30:00,21.0 ,53.8 ,14.5 ,12.3 ,19.8 ,20.3 ,48.3 
2004/12/2,0:45:00,20.8 ,53.9 ,14.5 ,12.3 ,19.6 ,20.1 ,48.4 
2004/12/2,1:00:00,20.7 ,54.1 ,14.5 ,12.4 ,19.4 ,20.1 ,48.6 
2004/12/2,1:15:00,20.5 ,54.2 ,14.6 ,12.4 ,19.3 ,19.9 ,48.8 
2004/12/2,1:30:00,20.4 ,54.2 ,14.6 ,12.4 ,19.1 ,19.9 ,49.0 
2004/12/2,1:45:00,20.3 ,54.4 ,14.6 ,12.4 ,19.0 ,19.8 ,49.1 
2004/12/2,2:00:00,20.1 ,54.6 ,14.6 ,12.5 ,19.0 ,19.7 ,49.1 
2004/12/2,2:15:00,20.0 ,54.6 ,14.6 ,12.5 ,18.8 ,19.6 ,49.2 
2004/12/2,2:30:00,19.9 ,54.6 ,14.6 ,12.5 ,18.7 ,19.6 ,49.2 
2004/12/2,2:45:00,19.8 ,54.8 ,14.5 ,12.5 ,18.6 ,19.5 ,49.1 
2004/12/2,3:00:00,19.7 ,54.8 ,14.5 ,12.5 ,18.5 ,19.4 ,49.1 
2004/12/2,3:15:00,19.7 ,54.8 ,14.5 ,12.5 ,18.3 ,19.3 ,49.1 
2004/12/2,3:30:00,19.5 ,54.6 ,14.5 ,12.5 ,18.2 ,19.2 ,48.9 
2004/12/2,3:45:00,19.5 ,54.6 ,14.5 ,12.6 ,18.1 ,19.1 ,48.9 
2004/12/2,4:00:00,19.4 ,54.7 ,14.5 ,12.6 ,18.0 ,19.1 ,48.8 
2004/12/2,4:15:00,19.3 ,54.8 ,14.5 ,12.6 ,18.0 ,19.0 ,48.8 
2004/12/2,4:30:00,19.2 ,54.7 ,14.4 ,12.6 ,17.9 ,18.9 ,48.8 
2004/12/2,4:45:00,19.1 ,54.6 ,14.4 ,12.6 ,17.9 ,18.8 ,48.9 
2004/12/2,5:00:00,19.0 ,54.5 ,14.4 ,12.6 ,17.8 ,18.8 ,48.8 
2004/12/2,5:15:00,18.9 ,54.5 ,14.4 ,12.6 ,17.7 ,18.7 ,48.7 
2004/12/2,5:30:00,18.9 ,54.4 ,14.3 ,12.6 ,17.6 ,18.6 ,48.6 
2004/12/2,5:45:00,18.8 ,54.3 ,14.3 ,12.6 ,17.5 ,18.6 ,48.6 
2004/12/2,6:00:00,18.7 ,54.1 ,14.3 ,12.6 ,17.4 ,18.5 ,48.5 
2004/12/2,6:15:00,18.6 ,54.3 ,14.3 ,12.6 ,17.3 ,18.4 ,48.5 
2004/12/2,6:30:00,18.6 ,55.5 ,14.3 ,12.3 ,17.3 ,18.4 ,48.8 
2004/12/2,6:45:00,18.9 ,54.1 ,14.3 ,12.3 ,17.5 ,18.3 ,48.5 
2004/12/2,7:00:00,19.6 ,52.5 ,14.3 ,12.4 ,18.1 ,18.5 ,49.0 
2004/12/2,7:15:00,20.1 ,52.1 ,14.2 ,12.5 ,22.4 ,18.8 ,49.4 
2004/12/2,7:30:00,20.5 ,50.1 ,14.2 ,12.5 ,24.7 ,18.9 ,48.6 
2004/12/2,7:45:00,21.0 ,51.5 ,14.2 ,12.6 ,23.3 ,19.3 ,49.3 
2004/12/2,8:00:00,21.4 ,51.7 ,14.5 ,12.6 ,22.2 ,19.5 ,49.6 
2004/12/2,8:15:00,21.6 ,51.1 ,14.7 ,12.6 ,21.7 ,19.7 ,49.8 
2004/12/2,8:30:00,21.3 ,51.1 ,14.9 ,12.2 ,21.0 ,19.8 ,49.3 
2004/12/2,8:45:00,21.4 ,50.9 ,14.8 ,12.2 ,20.5 ,19.9 ,49.0 
2004/12/2,9:00:00,21.3 ,51.0 ,14.9 ,12.3 ,20.3 ,19.9 ,48.8 
2004/12/2,9:15:00,21.5 ,51.7 ,14.9 ,12.3 ,20.3 ,20.1 ,48.8 
2004/12/2,9:30:00,21.6 ,51.5 ,14.9 ,12.3 ,20.5 ,20.1 ,48.8 
2004/12/2,9:45:00,21.6 ,52.7 ,14.9 ,12.2 ,20.6 ,20.2 ,49.1 
2004/12/2,10:00:00,21.6 ,54.5 ,15.0 ,12.3 ,21.8 ,20.3 ,49.4 
2004/12/2,10:15:00,21.4 ,53.9 ,15.0 ,12.3 ,22.8 ,20.3 ,49.4 
2004/12/2,10:30:00,21.5 ,52.3 ,15.0 ,12.4 ,23.3 ,20.3 ,49.2 
2004/12/2,10:45:00,21.5 ,50.8 ,15.0 ,12.4 ,23.3 ,20.4 ,48.6 
2004/12/2,11:00:00,21.5 ,50.4 ,15.0 ,12.4 ,23.4 ,20.4 ,48.4 
2004/12/2,11:15:00,21.5 ,50.1 ,15.1 ,12.5 ,23.5 ,20.5 ,48.2 
2004/12/2,11:30:00,21.4 ,49.9 ,15.1 ,12.5 ,23.4 ,20.5 ,47.8 
2004/12/2,11:45:00,21.5 ,49.6 ,15.1 ,12.5 ,23.6 ,20.5 ,47.5 
2004/12/2,12:00:00,21.5 ,50.1 ,15.1 ,12.6 ,24.5 ,20.6 ,47.4 
2004/12/2,12:15:00,21.6 ,50.1 ,15.1 ,12.6 ,24.4 ,20.6 ,47.6 
2004/12/2,12:30:00,21.7 ,50.2 ,15.1 ,12.6 ,24.2 ,20.7 ,47.4 
2004/12/2,12:45:00,21.7 ,49.1 ,15.1 ,12.5 ,23.8 ,20.7 ,47.2 
2004/12/2,13:00:00,21.8 ,48.2 ,15.1 ,12.5 ,23.4 ,20.8 ,46.8 
2004/12/2,13:15:00,21.9 ,49.4 ,15.2 ,12.6 ,23.5 ,20.8 ,46.8 
2004/12/2,13:30:00,22.0 ,49.2 ,15.2 ,12.6 ,23.5 ,20.9 ,46.9 
2004/12/2,13:45:00,21.8 ,49.4 ,15.3 ,12.5 ,23.3 ,20.9 ,46.8 
2004/12/2,14:00:00,21.8 ,49.4 ,15.3 ,12.5 ,23.2 ,20.9 ,46.7 
2004/12/2,14:15:00,21.8 ,49.6 ,15.3 ,12.6 ,22.8 ,20.9 ,46.8 
2004/12/2,14:30:00,21.7 ,49.8 ,15.3 ,12.6 ,22.5 ,20.9 ,46.8 
2004/12/2,14:45:00,21.6 ,49.9 ,15.3 ,12.7 ,22.0 ,20.9 ,46.8 
2004/12/2,15:00:00,21.5 ,50.0 ,15.2 ,12.7 ,21.6 ,20.8 ,46.8 
2004/12/2,15:15:00,21.4 ,50.1 ,15.2 ,12.7 ,21.3 ,20.8 ,46.8 
2004/12/2,15:30:00,21.3 ,50.2 ,15.2 ,12.8 ,21.1 ,20.8 ,46.8 
2004/12/2,15:45:00,21.2 ,50.3 ,15.2 ,12.8 ,20.9 ,20.7 ,46.8 
2004/12/2,16:00:00,21.1 ,50.3 ,15.2 ,12.8 ,20.7 ,20.6 ,46.8 
2004/12/2,16:15:00,21.0 ,50.3 ,15.2 ,12.8 ,20.4 ,20.6 ,46.8 
2004/12/2,16:30:00,20.9 ,50.4 ,15.1 ,12.9 ,20.2 ,20.5 ,46.8 
2004/12/2,16:45:00,20.7 ,50.4 ,15.1 ,12.9 ,20.0 ,20.5 ,46.8 
2004/12/2,17:00:00,20.6 ,50.2 ,15.1 ,12.9 ,19.8 ,20.4 ,46.8 
2004/12/2,17:15:00,20.5 ,50.1 ,15.1 ,13.0 ,19.6 ,20.4 ,46.6 
2004/12/2,17:30:00,20.4 ,49.8 ,15.0 ,13.0 ,19.4 ,20.3 ,46.4 
2004/12/2,17:45:00,20.2 ,49.0 ,15.0 ,13.0 ,19.3 ,20.3 ,46.1 
2004/12/2,18:00:00,20.1 ,49.5 ,15.0 ,13.0 ,19.1 ,20.2 ,45.8 
2004/12/2,18:15:00,20.0 ,48.8 ,14.9 ,13.0 ,19.0 ,20.1 ,45.6 
2004/12/2,18:30:00,19.9 ,48.3 ,14.9 ,13.1 ,19.1 ,20.0 ,45.3 
2004/12/2,18:45:00,19.8 ,48.8 ,14.9 ,13.1 ,19.6 ,19.9 ,45.1 
2004/12/2,19:00:00,19.8 ,48.9 ,14.8 ,13.1 ,19.6 ,19.9 ,45.1 
2004/12/2,19:15:00,19.7 ,48.8 ,14.8 ,13.1 ,19.4 ,19.9 ,44.9 
2004/12/2,19:30:00,19.6 ,48.1 ,14.8 ,13.1 ,19.1 ,19.8 ,44.8 
2004/12/2,19:45:00,19.9 ,48.4 ,14.8 ,13.0 ,18.9 ,19.8 ,44.6 
2004/12/2,20:00:00,20.6 ,47.7 ,14.8 ,13.1 ,19.5 ,19.9 ,44.8 
2004/12/2,20:15:00,20.8 ,47.8 ,14.7 ,12.1 ,21.0 ,19.9 ,44.9 
2004/12/2,20:30:00,21.1 ,49.8 ,14.7 ,12.2 ,20.6 ,20.1 ,45.8 
2004/12/2,20:45:00,21.2 ,49.4 ,14.7 ,12.2 ,20.2 ,20.2 ,45.9 
2004/12/2,21:00:00,21.2 ,49.1 ,14.7 ,12.3 ,20.0 ,20.3 ,45.9 
2004/12/2,21:15:00,21.3 ,49.2 ,14.7 ,12.3 ,19.9 ,20.3 ,45.9 
2004/12/2,21:30:00,21.4 ,49.1 ,14.7 ,12.3 ,20.0 ,20.4 ,45.9 
2004/12/2,21:45:00,21.4 ,48.7 ,14.7 ,12.4 ,19.8 ,20.4 ,45.8 
2004/12/2,22:00:00,21.5 ,48.2 ,14.6 ,12.4 ,19.7 ,20.4 ,45.7 
2004/12/2,22:15:00,21.4 ,47.3 ,14.6 ,12.3 ,19.7 ,20.5 ,45.3 
2004/12/2,22:30:00,21.5 ,46.6 ,14.6 ,12.1 ,19.8 ,20.5 ,44.9 
2004/12/2,22:45:00,21.5 ,47.7 ,14.5 ,12.1 ,20.0 ,20.6 ,44.8 
2004/12/2,23:00:00,21.6 ,48.5 ,14.5 ,12.2 ,19.9 ,20.6 ,45.3 
2004/12/2,23:15:00,21.3 ,48.9 ,14.5 ,12.0 ,19.4 ,20.6 ,45.3 
2004/12/2,23:30:00,20.9 ,49.0 ,14.5 ,12.1 ,18.9 ,20.4 ,45.2 
2004/12/2,23:45:00,20.6 ,49.1 ,14.5 ,12.1 ,18.5 ,20.3 ,45.1 
2004/12/3,0:00:00,20.3 ,48.8 ,14.5 ,12.2 ,18.3 ,20.2 ,44.9 
2004/12/3,0:15:00,20.1 ,48.6 ,14.4 ,12.2 ,18.0 ,20.0 ,44.9 
2004/12/3,0:30:00,19.7 ,48.5 ,14.4 ,12.2 ,17.7 ,19.9 ,44.1 
2004/12/3,0:45:00,19.5 ,48.4 ,14.4 ,12.2 ,17.5 ,19.6 ,43.4 
2004/12/3,1:00:00,19.3 ,48.4 ,14.3 ,12.2 ,17.3 ,19.4 ,43.3 
2004/12/3,1:15:00,19.1 ,48.4 ,14.3 ,12.3 ,17.0 ,19.2 ,43.1 
2004/12/3,1:30:00,19.0 ,48.1 ,14.3 ,12.3 ,16.8 ,19.0 ,43.1 
2004/12/3,1:45:00,18.9 ,47.9 ,14.2 ,12.3 ,16.7 ,18.8 ,43.1 
2004/12/3,2:00:00,18.7 ,48.1 ,14.2 ,12.3 ,16.6 ,18.7 ,43.1 
2004/12/3,2:15:00,18.6 ,48.3 ,14.1 ,12.3 ,16.5 ,18.6 ,43.0 
2004/12/3,2:30:00,18.5 ,48.2 ,14.1 ,12.3 ,16.4 ,18.4 ,43.0 
2004/12/3,2:45:00,18.3 ,48.3 ,14.1 ,12.3 ,16.3 ,18.3 ,43.1 
2004/12/3,3:00:00,18.2 ,48.4 ,14.0 ,12.3 ,16.2 ,18.1 ,43.0 
2004/12/3,3:15:00,18.1 ,48.3 ,14.0 ,12.3 ,16.0 ,18.0 ,43.0 
2004/12/3,3:30:00,17.9 ,48.4 ,13.9 ,12.3 ,15.8 ,17.8 ,43.0 
2004/12/3,3:45:00,17.7 ,48.3 ,13.9 ,12.3 ,15.6 ,17.7 ,43.0 
2004/12/3,4:00:00,17.6 ,48.5 ,13.8 ,12.3 ,15.5 ,17.6 ,42.9 
2004/12/3,4:15:00,17.4 ,48.6 ,13.8 ,12.3 ,15.4 ,17.4 ,43.0 
2004/12/3,4:30:00,17.3 ,48.7 ,13.7 ,12.3 ,15.2 ,17.3 ,43.1 
2004/12/3,4:45:00,17.1 ,48.8 ,13.7 ,12.3 ,15.0 ,17.2 ,43.1 
2004/12/3,5:00:00,17.0 ,48.7 ,13.6 ,12.3 ,14.9 ,17.1 ,43.1 
2004/12/3,5:15:00,16.9 ,48.6 ,13.6 ,12.3 ,14.7 ,17.0 ,43.0 
2004/12/3,5:30:00,16.7 ,48.8 ,13.5 ,12.3 ,14.7 ,16.9 ,42.9 
2004/12/3,5:45:00,16.6 ,48.7 ,13.5 ,12.3 ,14.5 ,16.8 ,42.9 
2004/12/3,6:00:00,16.9 ,49.0 ,13.4 ,12.3 ,14.6 ,16.6 ,42.9 
2004/12/3,6:15:00,17.6 ,48.4 ,13.4 ,12.3 ,15.7 ,16.7 ,43.3 
2004/12/3,6:30:00,18.1 ,48.0 ,13.3 ,12.3 ,16.5 ,16.8 ,43.9 
2004/12/3,6:45:00,18.3 ,47.6 ,13.3 ,12.3 ,16.9 ,17.0 ,44.2 
2004/12/3,7:00:00,18.7 ,46.9 ,13.3 ,12.3 ,17.1 ,17.2 ,44.3 
2004/12/3,7:15:00,19.1 ,46.3 ,13.3 ,12.3 ,17.7 ,17.5 ,44.3 
2004/12/3,7:30:00,19.4 ,46.7 ,13.6 ,12.0 ,21.4 ,17.8 ,44.4 
2004/12/3,7:45:00,19.7 ,46.6 ,13.5 ,12.0 ,22.0 ,18.1 ,44.3 
2004/12/3,8:00:00,19.8 ,47.1 ,13.7 ,12.0 ,21.1 ,18.3 ,44.4 
2004/12/3,8:15:00,19.9 ,46.8 ,14.1 ,12.0 ,20.5 ,18.5 ,44.5 
2004/12/3,8:30:00,20.0 ,46.5 ,14.2 ,12.1 ,20.1 ,18.6 ,44.4 
2004/12/3,8:45:00,20.1 ,46.6 ,14.2 ,12.1 ,20.1 ,18.8 ,44.2 
2004/12/3,9:00:00,20.4 ,47.0 ,14.3 ,12.1 ,20.3 ,18.9 ,44.3 
2004/12/3,9:15:00,20.5 ,48.2 ,14.2 ,12.1 ,20.6 ,19.1 ,44.6 
2004/12/3,9:30:00,20.6 ,47.5 ,14.6 ,11.7 ,20.7 ,19.2 ,44.7 
2004/12/3,9:45:00,20.8 ,47.3 ,14.6 ,11.7 ,21.0 ,19.3 ,44.8 
2004/12/3,10:00:00,20.8 ,46.4 ,14.6 ,11.7 ,21.1 ,19.5 ,44.5 
2004/12/3,10:15:00,20.7 ,46.1 ,14.7 ,11.8 ,21.0 ,19.6 ,44.1 
2004/12/3,10:30:00,20.6 ,45.7 ,14.7 ,11.8 ,20.7 ,19.6 ,43.8 
2004/12/3,10:45:00,20.5 ,45.4 ,14.7 ,11.8 ,20.6 ,19.6 ,43.6 
2004/12/3,11:00:00,20.5 ,45.1 ,14.7 ,11.8 ,20.4 ,19.7 ,43.4 
2004/12/3,11:15:00,20.5 ,44.9 ,14.7 ,11.8 ,20.4 ,19.7 ,43.3 
2004/12/3,11:30:00,20.5 ,44.6 ,14.7 ,11.6 ,20.4 ,19.8 ,43.1 
2004/12/3,11:45:00,20.6 ,46.8 ,14.7 ,11.7 ,20.3 ,19.8 ,43.2 
2004/12/3,12:00:00,20.7 ,47.1 ,14.7 ,11.7 ,20.3 ,19.8 ,43.5 
2004/12/3,12:15:00,20.7 ,47.0 ,14.7 ,11.7 ,20.2 ,19.9 ,43.7 
2004/12/3,12:30:00,20.7 ,46.8 ,14.8 ,11.8 ,20.1 ,19.9 ,43.7 
2004/12/3,12:45:00,20.7 ,46.3 ,14.8 ,11.8 ,20.1 ,20.0 ,43.6 
2004/12/3,13:00:00,20.8 ,45.8 ,14.8 ,11.8 ,20.2 ,20.1 ,43.4 
2004/12/3,13:15:00,20.8 ,45.0 ,14.9 ,11.8 ,20.3 ,20.1 ,43.2 
2004/12/3,13:30:00,20.8 ,44.7 ,14.9 ,11.9 ,20.4 ,20.2 ,42.9 
2004/12/3,13:45:00,20.9 ,44.3 ,14.9 ,11.9 ,20.4 ,20.2 ,42.8 
2004/12/3,14:00:00,20.8 ,44.6 ,14.9 ,11.9 ,21.0 ,20.2 ,42.6 
2004/12/3,14:15:00,20.9 ,44.6 ,15.0 ,12.0 ,21.4 ,20.3 ,42.4 
2004/12/3,14:30:00,20.8 ,44.4 ,15.0 ,12.2 ,21.6 ,20.3 ,42.3 
2004/12/3,14:45:00,20.8 ,44.5 ,15.0 ,12.2 ,21.5 ,20.3 ,42.1 
2004/12/3,15:00:00,20.7 ,44.7 ,15.1 ,12.2 ,21.4 ,20.2 ,42.2 
2004/12/3,15:15:00,20.6 ,44.8 ,15.1 ,12.3 ,21.2 ,20.2 ,42.2 
2004/12/3,15:30:00,20.5 ,45.0 ,15.0 ,12.3 ,20.9 ,20.1 ,42.2 
2004/12/3,15:45:00,20.4 ,45.2 ,15.0 ,12.3 ,20.6 ,20.1 ,42.3 
2004/12/3,16:00:00,20.3 ,45.5 ,15.0 ,12.3 ,20.4 ,20.1 ,42.3 
2004/12/3,16:15:00,20.2 ,45.8 ,15.0 ,12.4 ,20.2 ,20.0 ,42.4 
2004/12/3,16:30:00,20.1 ,45.9 ,15.0 ,12.4 ,19.9 ,19.9 ,42.4 
2004/12/3,16:45:00,20.0 ,46.2 ,15.0 ,12.5 ,19.6 ,19.9 ,42.5 
2004/12/3,17:00:00,19.9 ,46.1 ,15.0 ,12.5 ,19.4 ,19.8 ,42.6 
2004/12/3,17:15:00,19.8 ,46.0 ,15.0 ,12.5 ,19.1 ,19.8 ,42.6 
2004/12/3,17:30:00,19.7 ,45.5 ,14.9 ,12.5 ,18.9 ,19.8 ,42.7 
2004/12/3,17:45:00,19.6 ,45.4 ,14.9 ,12.6 ,18.7 ,19.7 ,42.7 
2004/12/3,18:00:00,19.5 ,45.1 ,14.9 ,12.6 ,18.5 ,19.6 ,42.6 
2004/12/3,18:15:00,19.4 ,45.2 ,14.9 ,12.6 ,18.3 ,19.6 ,42.5 
2004/12/3,18:30:00,19.3 ,45.1 ,14.9 ,12.6 ,18.2 ,19.5 ,42.3 
2004/12/3,18:45:00,19.2 ,45.2 ,14.8 ,12.6 ,18.1 ,19.4 ,42.1 
2004/12/3,19:00:00,19.1 ,45.2 ,14.8 ,12.7 ,17.9 ,19.3 ,42.0 
2004/12/3,19:15:00,19.0 ,45.3 ,14.8 ,12.7 ,17.7 ,19.3 ,41.9 
2004/12/3,19:30:00,18.9 ,45.3 ,14.8 ,12.7 ,17.6 ,19.2 ,41.8 
2004/12/3,19:45:00,18.9 ,45.4 ,14.7 ,12.7 ,17.4 ,19.1 ,41.8 
2004/12/3,20:00:00,18.8 ,45.6 ,14.7 ,12.7 ,17.3 ,19.1 ,41.7 
2004/12/3,20:15:00,18.7 ,45.6 ,14.7 ,12.7 ,17.3 ,19.0 ,41.7 
2004/12/3,20:30:00,18.6 ,45.7 ,14.6 ,12.8 ,17.2 ,18.9 ,41.7 
2004/12/3,20:45:00,18.5 ,45.9 ,14.6 ,12.8 ,17.1 ,18.8 ,41.6 
2004/12/3,21:00:00,18.4 ,46.0 ,14.6 ,12.8 ,17.1 ,18.8 ,41.6 
2004/12/3,21:15:00,18.3 ,46.3 ,14.5 ,12.8 ,17.1 ,18.7 ,41.5 
2004/12/3,21:30:00,18.2 ,46.2 ,14.5 ,12.8 ,17.0 ,18.6 ,41.5 
2004/12/3,21:45:00,18.2 ,47.1 ,14.5 ,12.8 ,17.0 ,18.6 ,41.4 
2004/12/3,22:00:00,19.2 ,47.4 ,14.5 ,11.9 ,18.0 ,18.6 ,41.9 
2004/12/3,22:15:00,19.8 ,46.7 ,14.5 ,12.0 ,18.6 ,18.8 ,42.6 
2004/12/3,22:30:00,20.1 ,46.9 ,14.4 ,12.0 ,18.9 ,18.9 ,42.9 
2004/12/3,22:45:00,20.3 ,47.5 ,14.4 ,12.1 ,19.1 ,19.1 ,43.4 
2004/12/3,23:00:00,20.6 ,46.8 ,14.4 ,12.1 ,19.3 ,19.3 ,43.6 
2004/12/3,23:15:00,20.9 ,46.2 ,14.5 ,11.7 ,19.5 ,19.6 ,43.4 
2004/12/3,23:30:00,20.6 ,49.8 ,14.5 ,11.8 ,19.3 ,19.7 ,43.5 
2004/12/3,23:45:00,21.0 ,49.5 ,14.4 ,11.8 ,19.6 ,19.8 ,44.5 
2004/12/4,0:00:00,20.4 ,49.2 ,14.4 ,11.9 ,19.3 ,19.8 ,44.0 
2004/12/4,0:15:00,20.0 ,49.1 ,14.4 ,11.9 ,18.8 ,19.6 ,43.8 
2004/12/4,0:30:00,19.8 ,49.1 ,14.4 ,11.9 ,18.6 ,19.5 ,43.7 
2004/12/4,0:45:00,19.6 ,49.0 ,14.4 ,12.0 ,18.4 ,19.3 ,43.6 
2004/12/4,1:00:00,19.4 ,48.9 ,14.3 ,12.0 ,18.3 ,19.2 ,43.6 
2004/12/4,1:15:00,19.2 ,48.8 ,14.3 ,12.0 ,18.2 ,19.1 ,43.6 
2004/12/4,1:30:00,19.1 ,48.7 ,14.3 ,12.1 ,18.1 ,18.9 ,43.4 
2004/12/4,1:45:00,18.9 ,48.7 ,14.2 ,12.1 ,18.0 ,18.8 ,43.4 
2004/12/4,2:00:00,18.8 ,48.8 ,14.2 ,12.1 ,17.9 ,18.8 ,43.4 
2004/12/4,2:15:00,18.7 ,48.8 ,14.2 ,12.2 ,17.8 ,18.6 ,43.4 
2004/12/4,2:30:00,18.6 ,48.8 ,14.1 ,12.2 ,17.7 ,18.6 ,43.3 
2004/12/4,2:45:00,18.5 ,48.9 ,14.1 ,12.2 ,17.6 ,18.4 ,43.3 
2004/12/4,3:00:00,18.4 ,48.7 ,14.1 ,12.2 ,17.5 ,18.4 ,43.3 
2004/12/4,3:15:00,18.3 ,49.0 ,14.0 ,12.2 ,17.4 ,18.3 ,43.3 
2004/12/4,3:30:00,18.2 ,48.7 ,14.0 ,12.2 ,17.3 ,18.2 ,43.2 
2004/12/4,3:45:00,18.1 ,48.8 ,14.0 ,12.2 ,17.2 ,18.1 ,43.2 
2004/12/4,4:00:00,17.9 ,48.6 ,13.9 ,12.2 ,17.2 ,18.1 ,43.1 
2004/12/4,4:15:00,17.8 ,48.5 ,13.9 ,12.3 ,17.2 ,18.0 ,43.1 
2004/12/4,4:30:00,17.8 ,48.7 ,13.9 ,12.3 ,17.2 ,17.9 ,43.0 
2004/12/4,4:45:00,17.6 ,48.6 ,13.8 ,12.3 ,17.2 ,17.8 ,43.1 
2004/12/4,5:00:00,17.6 ,48.6 ,13.8 ,12.3 ,17.1 ,17.7 ,43.0 
2004/12/4,5:15:00,17.5 ,48.7 ,13.8 ,12.3 ,17.0 ,17.6 ,42.9 
2004/12/4,5:30:00,17.4 ,49.0 ,13.7 ,12.3 ,16.9 ,17.6 ,42.9 
2004/12/4,5:45:00,17.3 ,48.9 ,13.7 ,12.3 ,16.9 ,17.4 ,42.8 
2004/12/4,6:00:00,17.2 ,48.7 ,13.7 ,12.3 ,16.8 ,17.4 ,42.6 
2004/12/4,6:15:00,17.1 ,48.6 ,13.6 ,12.1 ,16.8 ,17.3 ,42.3 
2004/12/4,6:30:00,17.6 ,48.2 ,13.6 ,12.1 ,16.9 ,17.3 ,42.3 
2004/12/4,6:45:00,18.3 ,47.5 ,13.6 ,12.2 ,17.9 ,17.4 ,42.9 
2004/12/4,7:00:00,18.9 ,46.3 ,13.6 ,12.2 ,18.6 ,17.7 ,43.1 
2004/12/4,7:15:00,19.3 ,45.6 ,13.5 ,12.3 ,19.1 ,18.1 ,43.1 
2004/12/4,7:30:00,19.5 ,45.2 ,13.5 ,12.3 ,19.5 ,18.3 ,43.0 
2004/12/4,7:45:00,19.8 ,44.7 ,13.5 ,12.3 ,19.7 ,18.5 ,42.9 
2004/12/4,8:00:00,19.9 ,44.7 ,13.5 ,12.3 ,19.8 ,18.6 ,42.8 
2004/12/4,8:15:00,20.2 ,44.2 ,13.5 ,12.4 ,19.9 ,18.8 ,42.6 
2004/12/4,8:30:00,20.3 ,44.0 ,13.5 ,12.4 ,20.2 ,18.9 ,42.5 
2004/12/4,8:45:00,20.5 ,44.0 ,13.6 ,12.4 ,20.2 ,19.1 ,42.4 
2004/12/4,9:00:00,20.5 ,44.9 ,13.6 ,12.4 ,21.4 ,19.3 ,42.4 
2004/12/4,9:15:00,20.7 ,46.4 ,13.6 ,12.4 ,21.3 ,19.3 ,42.9 
2004/12/4,9:30:00,21.0 ,46.2 ,13.7 ,12.4 ,21.3 ,19.5 ,43.2 
2004/12/4,9:45:00,20.8 ,48.7 ,13.7 ,12.5 ,21.4 ,19.6 ,43.4 
2004/12/4,10:00:00,20.4 ,49.0 ,13.8 ,11.8 ,20.9 ,19.5 ,43.5 
2004/12/4,10:15:00,20.7 ,47.0 ,14.3 ,11.8 ,21.0 ,19.5 ,43.6 
2004/12/4,10:30:00,21.0 ,45.7 ,14.9 ,11.9 ,21.2 ,19.6 ,43.4 
2004/12/4,10:45:00,20.7 ,45.6 ,15.0 ,11.9 ,21.3 ,19.7 ,43.2 
2004/12/4,11:00:00,20.4 ,46.8 ,14.7 ,11.9 ,20.9 ,19.6 ,43.0 
2004/12/4,11:15:00,20.2 ,47.8 ,14.8 ,11.8 ,20.7 ,19.6 ,43.3 
2004/12/4,11:30:00,20.1 ,47.8 ,14.6 ,11.8 ,20.4 ,19.5 ,43.4 
2004/12/4,11:45:00,20.0 ,48.3 ,14.5 ,11.9 ,20.2 ,19.4 ,43.5 
2004/12/4,12:00:00,19.9 ,48.6 ,14.5 ,11.9 ,20.1 ,19.3 ,43.6 
2004/12/4,12:15:00,19.8 ,48.8 ,14.4 ,12.0 ,19.9 ,19.3 ,43.7 
2004/12/4,12:30:00,19.7 ,49.0 ,14.4 ,12.1 ,19.8 ,19.3 ,43.8 
2004/12/4,12:45:00,19.6 ,49.2 ,14.4 ,12.1 ,19.8 ,19.2 ,43.8 
2004/12/4,13:00:00,19.6 ,49.4 ,14.4 ,12.2 ,19.7 ,19.1 ,43.9 
2004/12/4,13:15:00,19.6 ,49.7 ,14.4 ,12.2 ,19.7 ,19.1 ,44.0 
2004/12/4,13:30:00,19.6 ,49.8 ,14.4 ,12.2 ,19.7 ,19.1 ,44.1 
2004/12/4,13:45:00,19.5 ,50.1 ,14.4 ,12.3 ,19.6 ,19.1 ,44.2 
2004/12/4,14:00:00,19.5 ,50.3 ,14.4 ,12.3 ,19.6 ,19.1 ,44.3 
2004/12/4,14:15:00,19.5 ,50.5 ,14.4 ,12.3 ,19.6 ,19.1 ,44.4 
2004/12/4,14:30:00,19.4 ,50.7 ,14.4 ,12.4 ,19.6 ,19.1 ,44.4 
2004/12/4,14:45:00,19.4 ,50.8 ,14.5 ,12.4 ,19.5 ,19.0 ,44.5 
2004/12/4,15:00:00,19.4 ,51.1 ,14.5 ,12.5 ,19.5 ,19.0 ,44.6 
2004/12/4,15:15:00,19.4 ,51.2 ,14.5 ,12.5 ,19.5 ,18.9 ,44.7 
2004/12/4,15:30:00,19.3 ,51.4 ,14.5 ,12.5 ,19.4 ,18.9 ,44.8 
2004/12/4,15:45:00,19.8 ,50.9 ,14.6 ,12.6 ,19.6 ,18.9 ,45.1 
2004/12/4,16:00:00,20.5 ,49.8 ,14.7 ,12.6 ,20.1 ,19.1 ,45.6 
2004/12/4,16:15:00,20.2 ,50.5 ,14.7 ,12.6 ,20.2 ,19.3 ,45.5 
2004/12/4,16:30:00,20.0 ,51.0 ,14.7 ,12.7 ,19.9 ,19.3 ,45.4 
2004/12/4,16:45:00,19.9 ,51.1 ,14.7 ,12.7 ,19.7 ,19.3 ,45.4 
2004/12/4,17:00:00,19.8 ,51.3 ,14.7 ,12.7 ,19.6 ,19.2 ,45.5 
2004/12/4,17:15:00,19.7 ,51.6 ,14.7 ,12.8 ,19.5 ,19.2 ,45.5 
2004/12/4,17:30:00,19.7 ,51.8 ,14.7 ,12.8 ,19.4 ,19.2 ,45.6 
2004/12/4,17:45:00,19.6 ,51.9 ,14.8 ,12.8 ,19.3 ,19.1 ,45.6 
2004/12/4,18:00:00,19.5 ,51.3 ,15.0 ,12.0 ,19.2 ,19.1 ,45.7 
2004/12/4,18:15:00,20.3 ,50.9 ,15.1 ,12.1 ,19.7 ,19.2 ,46.1 
2004/12/4,18:30:00,20.9 ,50.0 ,15.1 ,12.2 ,20.3 ,19.5 ,46.4 
2004/12/4,18:45:00,20.7 ,50.6 ,15.1 ,12.2 ,20.4 ,19.6 ,46.3 
2004/12/4,19:00:00,20.5 ,51.2 ,15.1 ,12.3 ,20.2 ,19.6 ,46.1 
2004/12/4,19:15:00,21.0 ,50.9 ,15.1 ,12.4 ,20.9 ,19.7 ,46.4 
2004/12/4,19:30:00,20.8 ,54.4 ,15.1 ,12.4 ,21.7 ,19.8 ,47.0 
2004/12/4,19:45:00,20.8 ,55.6 ,15.1 ,12.5 ,21.3 ,19.8 ,48.0 
2004/12/4,20:00:00,20.8 ,53.7 ,15.1 ,12.5 ,21.2 ,19.8 ,48.1 
2004/12/4,20:15:00,21.1 ,52.6 ,15.1 ,12.0 ,21.4 ,19.9 ,48.1 
2004/12/4,20:30:00,20.9 ,53.1 ,15.0 ,12.1 ,21.0 ,19.9 ,47.7 
2004/12/4,20:45:00,20.8 ,54.1 ,15.0 ,12.2 ,20.8 ,19.9 ,48.0 
2004/12/4,21:00:00,21.3 ,52.9 ,15.0 ,12.2 ,21.0 ,19.9 ,48.4 
2004/12/4,21:15:00,21.1 ,52.8 ,15.0 ,12.3 ,20.9 ,20.0 ,48.3 
2004/12/4,21:30:00,21.0 ,52.0 ,15.6 ,12.4 ,20.6 ,20.0 ,47.9 
2004/12/4,21:45:00,21.3 ,51.4 ,15.6 ,12.4 ,21.0 ,20.1 ,47.9 
2004/12/4,22:00:00,21.1 ,52.0 ,15.6 ,12.5 ,20.7 ,20.1 ,47.7 
2004/12/4,22:15:00,20.9 ,51.6 ,15.5 ,12.6 ,20.3 ,20.1 ,47.4 
2004/12/4,22:30:00,20.7 ,51.5 ,15.5 ,12.6 ,20.0 ,20.0 ,47.3 
2004/12/4,22:45:00,20.6 ,51.3 ,15.5 ,12.7 ,19.8 ,19.9 ,47.1 
2004/12/4,23:00:00,20.4 ,51.2 ,15.5 ,12.7 ,19.6 ,19.9 ,47.0 
2004/12/4,23:15:00,20.4 ,51.8 ,15.5 ,12.8 ,19.5 ,19.8 ,46.9 
2004/12/4,23:30:00,20.3 ,51.8 ,15.4 ,12.8 ,19.4 ,19.8 ,46.9 
2004/12/4,23:45:00,20.2 ,52.0 ,15.4 ,12.9 ,19.4 ,19.8 ,46.9 
2004/12/5,0:00:00,20.1 ,52.0 ,15.4 ,12.9 ,19.3 ,19.7 ,46.9 
2004/12/5,0:15:00,20.0 ,52.1 ,15.4 ,13.0 ,19.2 ,19.6 ,46.9 
2004/12/5,0:30:00,19.9 ,52.0 ,15.3 ,13.0 ,19.0 ,19.6 ,46.9 
2004/12/5,0:45:00,19.8 ,51.9 ,15.3 ,13.1 ,18.8 ,19.6 ,46.8 